When you browse on this site, cookies collect data to enhance your experience and personalize the content and advertising you see.
Visit our Privacy Policy to learn more. By continuing to use the site, you agree to this use of cookies and data.
  • In Lithuania
  • List of Countries
  • For 7 days
  • Water Temperature
  • Weather Map
  • Weather Widgets
  • user-avatar
    Login

    Hourly Weather Trencin

    Today, 9 April, Thursday

    Time Temperature Precipitation Wind Pressure Humidity
    00:00 +8°C° 0 mm 0 mps 744 mmHg 52%
    01:00 +8°C° 0 mm 0 mps 744 mmHg 52%
    02:00 +7°C° 0 mm 0 mps 743 mmHg 53%
    03:00 +8°C° 0 mm 1 mps 743 mmHg 54%
    04:00 +8°C° 0 mm 1 mps 743 mmHg 55%
    05:00 +9°C° 0 mm 1 mps 743 mmHg 55%
    06:00 +10°C° 0 mm 1 mps 743 mmHg 54%
    07:00 +11°C° 0 mm 1 mps 743 mmHg 54%
    08:00 +13°C° 0 mm 1 mps 743 mmHg 48%
    09:00 +15°C° 0 mm 2 mps 743 mmHg 43%
    10:00 +17°C° 0 mm 2 mps 743 mmHg 38%
    11:00 +18°C° 0 mm 2 mps 743 mmHg 38%
    12:00 +18°C° 0 mm 2 mps 742 mmHg 37%
    13:00 +19°C° 0 mm 2 mps 742 mmHg 37%
    14:00 +19°C° 0 mm 2 mps 742 mmHg 37%
    15:00 +19°C° 0 mm 2 mps 742 mmHg 38%
    16:00 +19°C° 0 mm 2 mps 741 mmHg 38%
    17:00 +18°C° 0 mm 1 mps 741 mmHg 45%
    18:00 +15°C° 0 mm 1 mps 741 mmHg 53%
    19:00 +13°C° 0 mm 1 mps 741 mmHg 60%
    20:00 +13°C° 0 mm 1 mps 742 mmHg 63%
    21:00 +12°C° 0 mm 1 mps 742 mmHg 66%
    22:00 +11°C° 0 mm 1 mps 742 mmHg 69%
    23:00 +10°C° 0 mm 2 mps 743 mmHg 73%

    Tomorrow, 10 April, Friday

    Time Temperature Precipitation Wind Pressure Humidity
    00:00 +10°C° 0 mm 2 mps 743 mmHg 77%
    01:00 +9°C° 0 mm 2 mps 743 mmHg 81%
    02:00 +9°C° 0 mm 2 mps 743 mmHg 82%
    03:00 +8°C° 0 mm 2 mps 743 mmHg 83%
    04:00 +8°C° 0 mm 2 mps 743 mmHg 84%
    05:00 +8°C° 0 mm 2 mps 743 mmHg 81%
    06:00 +9°C° 0 mm 2 mps 744 mmHg 78%
    07:00 +10°C° 0 mm 2 mps 744 mmHg 76%
    08:00 +12°C° 0 mm 2 mps 744 mmHg 67%
    09:00 +12°C° 0 mm 3 mps 745 mmHg 59%
    10:00 +14°C° 0 mm 4 mps 745 mmHg 51%
    11:00 +14°C° 0 mm 4 mps 744 mmHg 49%
    12:00 +15°C° 0 mm 4 mps 744 mmHg 47%
    13:00 +15°C° 0 mm 4 mps 744 mmHg 44%
    14:00 +16°C° 0 mm 3 mps 744 mmHg 45%
    15:00 +16°C° 0 mm 3 mps 743 mmHg 46%
    16:00 +16°C° 0 mm 3 mps 743 mmHg 47%
    17:00 +13°C° 0 mm 3 mps 743 mmHg 53%
    18:00 +12°C° 0 mm 2 mps 743 mmHg 58%
    19:00 +9°C° 0 mm 2 mps 743 mmHg 63%
    20:00 +10°C° 0 mm 1 mps 743 mmHg 62%
    21:00 +9°C° 0 mm 1 mps 743 mmHg 62%
    22:00 +8°C° 0 mm 1 mps 744 mmHg 61%
    23:00 +8°C° 0 mm 1 mps 744 mmHg 60%

    Day after tomorrow, 11 April, Saturday

    Time Temperature Precipitation Wind Pressure Humidity
    00:00 +7°C° 0 mm 1 mps 744 mmHg 60%
    01:00 +7°C° 0 mm 1 mps 743 mmHg 59%
    02:00 +7°C° 0 mm 1 mps 744 mmHg 61%
    03:00 +6°C° 0 mm 1 mps 744 mmHg 62%
    04:00 +6°C° 0 mm 1 mps 744 mmHg 63%
    05:00 +7°C° 0 mm 1 mps 744 mmHg 61%
    06:00 +8°C° 0 mm 1 mps 744 mmHg 59%
    07:00 +9°C° 0 mm 1 mps 744 mmHg 57%
    08:00 +11°C° 0 mm 1 mps 745 mmHg 52%
    09:00 +13°C° 0 mm 1 mps 745 mmHg 47%
    10:00 +15°C° 0 mm 2 mps 745 mmHg 41%
    11:00 +15°C° 0 mm 2 mps 745 mmHg 39%
    12:00 +16°C° 0 mm 2 mps 745 mmHg 37%
    13:00 +17°C° 0 mm 2 mps 745 mmHg 35%
    14:00 +17°C° 0 mm 2 mps 744 mmHg 36%
    15:00 +17°C° 0 mm 2 mps 744 mmHg 37%
    16:00 +17°C° 0 mm 2 mps 744 mmHg 38%
    17:00 +15°C° 0 mm 2 mps 744 mmHg 45%
    18:00 +13°C° 0 mm 2 mps 744 mmHg 52%
    19:00 +10°C° 0 mm 2 mps 744 mmHg 59%
    20:00 +9°C° 0 mm 2 mps 744 mmHg 60%
    21:00 +9°C° 0 mm 1 mps 744 mmHg 62%
    22:00 +8°C° 0 mm 1 mps 744 mmHg 63%
    23:00 +8°C° 0 mm 1 mps 744 mmHg 64%

    12 April, Sunday

    Time Temperature Precipitation Wind Pressure Humidity
    00:00 +8°C° 0 mm 1 mps 744 mmHg 65%
    01:00 +7°C° 0 mm 1 mps 744 mmHg 67%
    02:00 +7°C° 0 mm 1 mps 744 mmHg 69%
    03:00 +7°C° 0 mm 1 mps 743 mmHg 71%
    04:00 +6°C° 0 mm 1 mps 743 mmHg 74%
    05:00 +7°C° 0 mm 1 mps 743 mmHg 71%
    06:00 +8°C° 0 mm 1 mps 743 mmHg 68%
    07:00 +10°C° 0 mm 1 mps 743 mmHg 66%
    08:00 +12°C° 0 mm 2 mps 743 mmHg 61%
    09:00 +13°C° 0 mm 2 mps 742 mmHg 57%
    10:00 +14°C° 0 mm 3 mps 742 mmHg 53%
    11:00 +16°C° 0 mm 3 mps 742 mmHg 52%
    12:00 +17°C° 0 mm 4 mps 741 mmHg 52%
    13:00 +18°C° 0 mm 4 mps 741 mmHg 52%
    14:00 +17°C° 0 mm 4 mps 740 mmHg 53%
    15:00 +17°C° 0 mm 4 mps 739 mmHg 54%
    16:00 +17°C° 0 mm 4 mps 739 mmHg 55%
    17:00 +14°C° 0 mm 4 mps 738 mmHg 61%
    18:00 +13°C° 0 mm 3 mps 738 mmHg 67%
    19:00 +12°C° 0 mm 2 mps 738 mmHg 73%
    20:00 +12°C° 0 mm 2 mps 738 mmHg 73%
    21:00 +10°C° 0 mm 2 mps 738 mmHg 73%
    22:00 +10°C° 0 mm 2 mps 737 mmHg 73%
    23:00 +10°C° 0 mm 2 mps 737 mmHg 72%

    13 April, Monday

    Time Temperature Precipitation Wind Pressure Humidity
    00:00 +10°C° 0 mm 2 mps 737 mmHg 70%
    01:00 +10°C° 0 mm 2 mps 737 mmHg 68%
    02:00 +9°C° 0 mm 2 mps 736 mmHg 69%
    03:00 +9°C° 0 mm 2 mps 736 mmHg 70%
    04:00 +9°C° 0 mm 2 mps 736 mmHg 71%
    05:00 +9°C° 0 mm 2 mps 736 mmHg 70%
    06:00 +10°C° 0 mm 2 mps 736 mmHg 70%
    07:00 +12°C° 0 mm 2 mps 736 mmHg 70%
    08:00 +13°C° 0 mm 2 mps 735 mmHg 67%
    09:00 +13°C° 0 mm 3 mps 735 mmHg 64%
    10:00 +16°C° 0 mm 3 mps 735 mmHg 61%
    11:00 +16°C° 0 mm 3 mps 735 mmHg 61%
    12:00 +17°C° 0 mm 3 mps 735 mmHg 60%
    13:00 +18°C° 0 mm 2 mps 734 mmHg 59%
    14:00 +18°C° 0 mm 2 mps 734 mmHg 59%
    15:00 +18°C° 0 mm 3 mps 734 mmHg 60%
    16:00 +18°C° 0 mm 3 mps 734 mmHg 61%
    17:00 +17°C° 0.6 mm 2 mps 733 mmHg 68%
    18:00 +15°C° 0.6 mm 2 mps 733 mmHg 75%
    19:00 +14°C° 0.6 mm 2 mps 733 mmHg 82%
    20:00 +13°C° 0.5 mm 2 mps 734 mmHg 85%
    21:00 +12°C° 0.5 mm 2 mps 734 mmHg 87%
    22:00 +11°C° 0.5 mm 3 mps 735 mmHg 90%
    23:00 +10°C° 0.4 mm 3 mps 736 mmHg 89%

    14 April, Tuesday

    Time Temperature Precipitation Wind Pressure Humidity
    00:00 +8°C° 0.4 mm 4 mps 736 mmHg 88%
    01:00 +7°C° 0.4 mm 5 mps 737 mmHg 86%
    02:00 +5°C° 0 mm 5 mps 738 mmHg 85%
    03:00 +2°C° 0 mm 5 mps 739 mmHg 84%
    04:00 +1°C° 0 mm 5 mps 740 mmHg 82%
    05:00 -1°C° 0 mm 6 mps 741 mmHg 78%
    06:00 -1°C° 0 mm 6 mps 742 mmHg 73%
    07:00 -2°C° 0 mm 6 mps 743 mmHg 68%
    08:00 -1°C° 0 mm 6 mps 743 mmHg 60%
    09:00 +2°C° 0 mm 6 mps 744 mmHg 51%
    10:00 +3°C° 0 mm 6 mps 744 mmHg 43%
    11:00 +4°C° 0 mm 6 mps 744 mmHg 41%
    12:00 +6°C° 0 mm 5 mps 744 mmHg 39%
    13:00 +7°C° 0 mm 5 mps 744 mmHg 37%
    14:00 +7°C° 0 mm 4 mps 744 mmHg 38%
    15:00 +7°C° 0 mm 4 mps 744 mmHg 38%
    16:00 +8°C° 0 mm 4 mps 744 mmHg 39%
    17:00 +7°C° 0 mm 3 mps 744 mmHg 45%
    18:00 +4°C° 0 mm 3 mps 744 mmHg 50%
    19:00 +4°C° 0 mm 2 mps 744 mmHg 56%
    20:00 +3°C° 0 mm 2 mps 744 mmHg 59%
    21:00 +2°C° 0 mm 2 mps 745 mmHg 62%
    22:00 +2°C° 0 mm 2 mps 745 mmHg 65%
    23:00 +1°C° 0 mm 2 mps 745 mmHg 65%
    Show more